Fairbanks Ft. Wainwright, AK

4:58 AM AKST on December 17, 2017 (GMT -0900)
Ladd Army Air Field

Weather History for PAFB - December, 2017

Change the Weather History Date:

Thursday, December 7, 2017

  Actual Average Record
Temperature  
Mean Temperature 18 °F -  
Max Temperature 35 °F 1 °F 39 °F (2005)
Min Temperature 3 °F -6 °F -34 °F (2012)
Degree Days  
Heating Degree Days 46    
Moisture  
Dew Point 19 °F    
Average Humidity 93    
Maximum Humidity 100    
Minimum Humidity 85    
Precipitation  
Precipitation 0.03 in - - ()
Snow  
Snow 0.00 in - - ()
Snow Depth 12.00 in    
Sea Level Pressure  
Sea Level Pressure 29.77 in    
Wind  
Wind Speed 3 mph (ENE)    
Max Wind Speed 13 mph    
Max Gust Speed -    
Visibility 7 miles    
Events Fog , Rain    
Averages and records for this station are not official NWS values.
T = Trace of Precipitation, MM = Missing Value Source: NWS Daily Summary

Daily Weather History Graph

Daily Weather History Graph

Search for Another Location

Airport or City:

Trip Planner

Search our weather history database for the weather conditions in past years. The results will help you decide how hot, cold, wet, or windy it might be!

Date:

Astronomy

Dec. 07, 2017 Rise Set
Actual Time 10:36 AM AKST 2:47 PM AKST
Civil Twilight 9:16 AM AKST 4:07 PM AKST
Nautical Twilight 8:06 AM AKST 5:17 PM AKST
Astronomical Twilight 7:05 AM AKST 6:18 PM AKST
Moon 8:51 PM AKST (12/7) 1:23 PM AKST (12/7)
Length of Visible Light 6h 51m
Length of Day
4h 11m
Waning Gibbous, 76% of the Moon is Illuminated
Dec 7
Waning Gibbous
Dec 9
Last Quarter
Dec 17
New
Dec 26
First Quarter
Jan 1
Full

Hourly Weather History & Observations

Time (AKST) Temp. Windchill Dew Point Humidity Pressure Visibility Wind Dir Wind Speed Gust Speed Precip Events Conditions
12:21 AM 8.6 °F - 6.8 °F 92% 30.10 in 0.5 mi Calm Calm - N/A Fog Fog
12:26 AM 8.6 °F - 6.8 °F 92% 30.07 in 0.6 mi Calm Calm - N/A   Clear
12:31 AM 10.4 °F - 6.8 °F 85% 30.10 in 1.2 mi Calm Calm - N/A   Clear
12:36 AM 10.4 °F - 8.6 °F 92% 30.10 in 3.0 mi Calm Calm - N/A   Clear
12:46 AM 10.4 °F - 8.6 °F 92% 30.10 in 2.0 mi Calm Calm - N/A   Clear
12:58 AM 9.9 °F - 7.7 °F 91% 30.09 in 0.5 mi Calm Calm - 0.00 in Fog Light Freezing Fog
1:58 AM 4.3 °F - 1.6 °F 89% 30.07 in 0.5 mi Calm Calm - N/A Fog Light Freezing Fog
2:13 AM 5.0 °F - 1.4 °F 85% 30.07 in 0.9 mi Calm Calm - N/A   Clear
2:43 AM 5.0 °F - 3.2 °F 92% 30.09 in 1.1 mi Calm Calm - N/A   Clear
2:48 AM 5.0 °F - 1.4 °F 85% 30.07 in 4.0 mi Calm Calm - N/A   Clear
2:58 AM 3.9 °F - 1.2 °F 89% 30.09 in 8.0 mi Calm Calm - N/A   Clear
3:58 AM 14.0 °F 3.9 °F 14.0 °F 100% 30.04 in 8.0 mi ENE 6.9 mph - N/A   Clear
4:58 AM 17.4 °F 8.0 °F 16.0 °F 94% 30.04 in 10.0 mi ENE 6.9 mph - N/A   Clear
5:58 AM 14.4 °F 6.9 °F 12.7 °F 93% 30.01 in 10.0 mi East 4.6 mph - N/A   Clear
6:58 AM 14.5 °F - 12.9 °F 93% 29.98 in 10.0 mi Calm Calm - N/A   Partly Cloudy
7:58 AM 12.9 °F - 11.1 °F 93% 29.94 in 10.0 mi Calm Calm - N/A   Scattered Clouds
8:58 AM 17.2 °F - 15.8 °F 94% 29.89 in 10.0 mi Calm Calm - N/A   Mostly Cloudy
9:58 AM 16.2 °F 9.0 °F 14.9 °F 95% 29.85 in 10.0 mi NE 4.6 mph - N/A   Mostly Cloudy
10:58 AM 19.8 °F 10.8 °F 18.7 °F 96% 29.79 in 10.0 mi ENE 6.9 mph - 0.00 in   Overcast
11:58 AM 21.6 °F 14.0 °F 20.7 °F 96% 29.75 in 10.0 mi ENE 5.8 mph - N/A   Mostly Cloudy
12:58 PM 22.6 °F 13.4 °F 21.9 °F 97% 29.69 in 9.0 mi ENE 8.1 mph - N/A   Mostly Cloudy
1:58 PM 24.1 °F 15.2 °F 23.4 °F 97% 29.65 in 9.0 mi ENE 8.1 mph - N/A   Mostly Cloudy
2:58 PM 25.9 °F 17.4 °F 25.3 °F 98% 29.60 in 10.0 mi ENE 8.1 mph - N/A   Overcast
3:58 PM 27.0 °F 18.7 °F 26.4 °F 98% 29.56 in 10.0 mi NE 8.1 mph - N/A   Mostly Cloudy
4:58 PM 27.5 °F 18.6 °F 27.0 °F 98% 29.53 in 10.0 mi ENE 9.2 mph - N/A   Overcast
5:58 PM 30.4 °F 21.5 °F 28.6 °F 93% 29.50 in 10.0 mi ENE 10.4 mph - N/A   Overcast
6:17 PM 32.0 °F 22.5 °F 30.2 °F 93% 29.49 in 9.0 mi ENE 12.7 mph - N/A Rain Light Rain
6:35 PM 32.0 °F 23.6 °F 30.2 °F 93% 29.47 in 7.0 mi ENE 10.4 mph - N/A   Overcast
6:41 PM 32.0 °F 23.6 °F 30.2 °F 93% 29.46 in 6.0 mi ENE 10.4 mph - N/A Rain Light Rain
6:51 PM 32.0 °F 24.2 °F 30.2 °F 93% 29.46 in 6.0 mi ENE 9.2 mph - N/A   Overcast
6:58 PM 32.7 °F 25.0 °F 30.6 °F 92% 29.46 in 7.0 mi ENE 9.2 mph - 0.00 in   Overcast
7:06 PM 33.8 °F 27.0 °F 30.2 °F 87% 29.45 in 7.0 mi ENE 8.1 mph - N/A Rain Light Rain
7:58 PM 34.3 °F 27.0 °F 32.5 °F 93% 29.43 in 6.0 mi ENE 9.2 mph - 0.01 in Rain Light Rain
8:58 PM 34.7 °F 26.9 °F 32.9 °F 93% 29.41 in 6.0 mi ENE 10.4 mph - 0.02 in Rain Light Rain
9:58 PM 34.0 °F 29.8 °F 32.7 °F 95% 29.39 in 10.0 mi NE 4.6 mph - N/A   Mostly Cloudy
10:58 PM 34.7 °F 29.6 °F 32.9 °F 93% 29.37 in 10.0 mi ENE 5.8 mph - N/A   Mostly Cloudy
11:58 PM 35.4 °F 30.5 °F 32.9 °F 91% 29.37 in 10.0 mi East 5.8 mph - N/A   Overcast